This is the latest recevied weather packets stored in our database for station/object KO4FR. If no packets are shown the sender has not sent any weather packets the latest 1 day(s).
| Time | Temp. | Humidity | Pressure | Rain* | Wind** | Luminosity | Snow |
|---|---|---|---|---|---|---|---|
| 1778016602 | 26.67° C | 35% | 1013.1 hPa | 0 mm | 0 m/s | - | - |
| 1778016302 | 26.67° C | 36% | 1013 hPa | 0 mm | 0 m/s | - | - |
| 1778016002 | 26.67° C | 35% | 1013.1 hPa | 0 mm | 0 m/s | - | - |
| 1778015702 | 27.22° C | 34% | 1013.2 hPa | 0 mm | 0 m/s | - | - |
| 1778015402 | 27.22° C | 34% | 1013.2 hPa | 0 mm | 0 m/s | - | - |
| 1778015102 | 27.22° C | 34% | 1013.2 hPa | 0 mm | 0.89 m/s, 84° | - | - |
| 1778014802 | 27.22° C | 35% | 1013.2 hPa | 0 mm | 0 m/s | - | - |
| 1778014501 | 27.22° C | 34% | 1013.2 hPa | 0 mm | 0 m/s | - | - |
| 1778014201 | 27.22° C | 34% | 1013.4 hPa | 0 mm | 0 m/s | - | - |
| 1778013902 | 27.22° C | 33% | 1013.5 hPa | 0 mm | 0.89 m/s, 115° | - | - |
| 1778013602 | 27.22° C | 33% | 1013.4 hPa | 0 mm | 0 m/s | - | - |
| 1778013302 | 27.22° C | 33% | 1013.5 hPa | 0 mm | 0 m/s | - | - |
| 1778013001 | 26.67° C | 32% | 1013.3 hPa | 0 mm | 0 m/s | - | - |
| 1778012701 | 26.67° C | 32% | 1013.4 hPa | 0 mm | 0 m/s | - | - |
| 1778012401 | 26.11° C | 33% | 1013.4 hPa | 0 mm | 0.45 m/s, 121° | - | - |
| 1778012102 | 26.11° C | 33% | 1013.4 hPa | 0 mm | 0 m/s | - | - |
| 1778011802 | 26.67° C | 32% | 1013.4 hPa | 0 mm | 0 m/s | - | - |
| 1778011501 | 26.67° C | 32% | 1013.5 hPa | 0 mm | 0 m/s | - | - |
| 1778011217 | 26.67° C | 32% | 1013.5 hPa | 0 mm | 0 m/s | - | - |
| 1778010902 | 26.67° C | 31% | 1013.7 hPa | 0 mm | 0 m/s | - | - |
| 1778010601 | 27.78° C | 31% | 1013.7 hPa | 0 mm | 0 m/s | - | - |
| 1778010302 | 27.78° C | 31% | 1013.8 hPa | 0 mm | 0 m/s | - | - |
| 1778010001 | 27.78° C | 31% | 1013.8 hPa | 0 mm | 0 m/s | - | - |
| 1778009702 | 27.22° C | 31% | 1013.8 hPa | 0 mm | 0 m/s | - | - |
| 1778009402 | 27.78° C | 30% | 1013.9 hPa | 0 mm | 0 m/s | - | - |
* Rain latest hour (hover to see other rain measurements)
** Current wind speed in m/s (hover to see current wind gust speed)